TimeCET,TemperatureF,Dew PointF,Humidity,Sea Level PressureIn,VisibilityMPH,Wind Direction,Wind SpeedMPH,Gust SpeedMPH,PrecipitationIn,Events,Conditions,WindDirDegrees,DateUTC
6:00 AM,50.0,46.4,87,29.95,6.2,Variable,2.3,-,N/A,,Partly Cloudy,0,2012-12-13 05:00:00
6:30 AM,51.8,46.4,82,29.98,6.2,Variable,2.3,-,N/A,,Partly Cloudy,0,2012-12-13 05:30:00
7:00 AM,54,47,70,29.98,12,West,3.5,,,,Scattered Clouds,260,2012-12-13 06:00:00
7:00 AM,53.6,50.0,88,29.98,6.2,West,3.5,-,N/A,,Partly Cloudy,260,2012-12-13 06:00:00
7:30 AM,55.4,48.2,77,29.98,6.2,WSW,4.6,-,N/A,,Partly Cloudy,240,2012-12-13 06:30:00
8:00 AM,55.4,51.8,88,29.98,-9999.0,WSW,5.8,-,N/A,,Clear,250,2012-12-13 07:00:00
8:30 AM,55.4,51.8,88,30.01,-9999.0,WSW,3.5,-,N/A,,Clear,240,2012-12-13 07:30:00
9:00 AM,55.4,51.8,88,30.01,-9999.0,Calm,Calm,-,N/A,,Clear,0,2012-12-13 08:00:00
9:30 AM,55.4,51.8,88,30.01,6.2,Variable,1.2,-,N/A,,Partly Cloudy,0,2012-12-13 08:30:00
10:00 AM,59.0,53.6,82,30.04,6.2,SW,2.3,-,N/A,,Partly Cloudy,230,2012-12-13 09:00:00
10:30 AM,59.0,53.6,82,30.04,6.2,SW,4.6,-,N/A,,Partly Cloudy,230,2012-12-13 09:30:00
11:00 AM,59.0,53.6,82,30.04,6.2,SW,4.6,-,N/A,,Partly Cloudy,230,2012-12-13 10:00:00
11:30 AM,60.8,53.6,77,30.04,6.2,Variable,2.3,-,N/A,,Partly Cloudy,0,2012-12-13 10:30:00
12:00 PM,62.6,51.8,68,30.04,6.2,Variable,2.3,-,N/A,,Partly Cloudy,0,2012-12-13 11:00:00
12:30 PM,62.6,51.8,68,30.04,-9999.0,Variable,1.2,-,N/A,,Clear,0,2012-12-13 11:30:00
1:00 PM,64,50,51,30.03,12,Calm,Calm,,,,Scattered Clouds,,2012-12-13 12:00:00
1:00 PM,62.6,51.8,68,30.04,6.2,Variable,2.3,-,N/A,,Partly Cloudy,0,2012-12-13 12:00:00
1:30 PM,66.2,50.0,56,30.01,6.2,West,2.3,-,N/A,,Partly Cloudy,260,2012-12-13 12:30:00
2:00 PM,64.4,50.0,59,30.01,6.2,West,3.5,-,N/A,,Partly Cloudy,280,2012-12-13 13:00:00
2:30 PM,64.4,50.0,59,30.01,6.2,WNW,4.6,-,N/A,,Partly Cloudy,290,2012-12-13 13:30:00
3:00 PM,64.4,48.2,56,30.01,6.2,WNW,5.8,-,N/A,,Partly Cloudy,290,2012-12-13 14:00:00
3:30 PM,64.4,48.2,56,30.01,6.2,West,5.8,-,N/A,,Partly Cloudy,270,2012-12-13 14:30:00
4:00 PM,64.4,48.2,56,30.01,6.2,West,5.8,-,N/A,,Partly Cloudy,270,2012-12-13 15:00:00
4:30 PM,64.4,48.2,56,30.01,6.2,West,4.6,-,N/A,,Partly Cloudy,270,2012-12-13 15:30:00
5:00 PM,62.6,50.0,63,30.01,6.2,West,3.5,-,N/A,,Partly Cloudy,270,2012-12-13 16:00:00
5:30 PM,62.6,50.0,63,30.01,6.2,Variable,2.3,-,N/A,,Partly Cloudy,0,2012-12-13 16:30:00
6:00 PM,60.8,50.0,68,30.01,-9999.0,Variable,1.2,-,N/A,,Clear,0,2012-12-13 17:00:00
6:30 PM,59.0,50.0,72,30.04,-9999.0,West,3.5,-,N/A,,Clear,260,2012-12-13 17:30:00
7:00 PM,59,49,59,30.04,16,WSW,6.9,,,,,240,2012-12-13 18:00:00
7:00 PM,59.0,48.2,67,30.04,-9999.0,WSW,3.5,-,N/A,,Clear,240,2012-12-13 18:00:00
7:30 PM,57.2,48.2,72,30.04,-9999.0,WSW,3.5,-,N/A,,Clear,250,2012-12-13 18:30:00